Sturgis, MI

3:56 AM EST on December 11, 2019 (GMT -0500)
Kirsch Municipal

Weather History for KIRS - October, 2019

Change the Weather History Date:

Monday, October 28, 2019

  Actual Average (KHAI) Record (KHAI)
Temperature  
Mean Temperature 54 °F -  
Max Temperature 66 °F 59 °F 75 °F (1989)
Min Temperature 41 °F 38 °F 20 °F (1976)
Degree Days  
Heating Degree Days 12    
Growing Degree Days 4 (Base 50)    
Moisture  
Dew Point 45 °F    
Average Humidity 73    
Maximum Humidity 90    
Minimum Humidity 49    
Precipitation  
Precipitation 0.00 in - - ()
Sea Level Pressure  
Sea Level Pressure 30.03 in    
Wind  
Wind Speed 3 mph ()    
Max Wind Speed 15 mph    
Max Gust Speed 22 mph    
Visibility 9.6 miles    
Events      
Averages and records for this station are not official NWS values.
T = Trace of Precipitation, MM = Missing Value Source: Averaged Metar Reports

Daily Weather History Graph

Daily Weather History Graph

Search for Another Location

Airport or City:

Astronomy

Oct. 28, 2019 Rise Set
Actual Time 8:08 AM EDT 6:41 PM EDT
Civil Twilight 7:40 AM EDT 7:10 PM EDT
Nautical Twilight 7:07 AM EDT 7:42 PM EDT
Astronomical Twilight 6:35 AM EDT 8:15 PM EDT
Moon 8:29 AM EDT (10/28) 7:26 PM EDT (10/28)
Length of Visible Light 11h 29m
Length of Day
10h 32m
New Moon, 0% of the Moon is Illuminated
Oct 28
New Moon
Nov 4
First Quarter
Nov 12
Full
Nov 19
Last Quarter
Nov 26
New

Hourly Weather History & Observations

Time (EDT) Temp. Windchill Dew Point Humidity Pressure Visibility Wind Dir Wind Speed Gust Speed Precip Events Conditions
12:15 AM 45.0 °F - 39.2 °F 80% 30.01 in 10.0 mi Calm Calm - N/A   Clear
12:39 AM 45.3 °F - 39.2 °F 79% 30.01 in 10.0 mi Calm Calm - N/A   Clear
12:56 AM 45.1 °F - 39.4 °F 80% 30.01 in 10.0 mi Calm Calm - N/A   Clear
1:15 AM 44.6 °F - 39.4 °F 82% 30.01 in 10.0 mi Calm Calm - N/A   Clear
1:16 AM 44.6 °F 43.1 °F 39.4 °F 82% 30.01 in 10.0 mi SSE 3.5 mph - N/A   Clear
1:35 AM 44.6 °F 43.1 °F 39.0 °F 81% 30.01 in 10.0 mi SSE 3.5 mph - N/A   Clear
1:55 AM 43.7 °F - 38.7 °F 82% 30.02 in 10.0 mi Calm Calm - N/A   Clear
2:18 AM 44.1 °F - 38.7 °F 81% 30.01 in 10.0 mi Calm Calm - N/A   Clear
2:36 AM 44.2 °F 42.7 °F 39.2 °F 82% 30.02 in 10.0 mi South 3.5 mph - N/A   Clear
2:55 AM 45.5 °F 44.2 °F 39.6 °F 80% 30.02 in 10.0 mi South 3.5 mph - N/A   Clear
2:56 AM 45.5 °F - 39.6 °F 80% 30.02 in 10.0 mi Calm Calm - N/A   Clear
3:15 AM 45.9 °F - 39.7 °F 79% 30.03 in 10.0 mi Calm Calm - N/A   Clear
3:16 AM 45.9 °F - 39.6 °F 79% 30.03 in 10.0 mi Calm Calm - N/A   Clear
3:39 AM 44.6 °F 43.1 °F 39.2 °F 81% 30.03 in 10.0 mi South 3.5 mph - N/A   Clear
3:56 AM 42.1 °F - 38.3 °F 86% 30.03 in 10.0 mi Calm Calm - N/A   Clear
4:15 AM 44.2 °F - 40.1 °F 85% 30.03 in 10.0 mi Calm Calm - N/A   Clear
4:16 AM 44.2 °F - 40.1 °F 85% 30.03 in 10.0 mi Calm Calm - N/A   Clear
4:35 AM 44.6 °F - 40.3 °F 85% 30.03 in 10.0 mi Calm Calm - N/A   Clear
4:55 AM 43.7 °F - 39.9 °F 87% 30.03 in 10.0 mi Calm Calm - N/A   Clear
5:18 AM 43.3 °F - 40.1 °F 88% 30.04 in 10.0 mi Calm Calm - N/A   Clear
5:36 AM 43.5 °F - 40.3 °F 88% 30.04 in 10.0 mi Calm Calm - N/A   Clear
5:55 AM 43.7 °F - 40.3 °F 88% 30.04 in 10.0 mi Calm Calm - N/A   Clear
6:15 AM 42.8 °F - 39.4 °F 88% 30.04 in 7.0 mi Calm Calm - N/A   Clear
6:39 AM 41.9 °F 40.0 °F 38.7 °F 88% 30.05 in 7.0 mi South 3.5 mph - N/A   Clear
6:57 AM 41.9 °F 40.0 °F 38.8 °F 89% 30.05 in 7.0 mi South 3.5 mph - N/A   Clear
7:15 AM 42.1 °F 40.2 °F 39.0 °F 89% 30.05 in 7.0 mi South 3.5 mph - N/A   Clear
7:35 AM 43.3 °F 40.7 °F 40.1 °F 88% 30.05 in 10.0 mi South 4.6 mph - N/A   Clear
7:55 AM 43.2 °F - 40.1 °F 89% 30.05 in 7.0 mi Calm Calm - N/A   Clear
8:00 AM 43.5 °F 41.9 °F 40.3 °F 88% 30.05 in 7.0 mi South 3.5 mph - N/A   Clear
8:18 AM 43.0 °F - 40.1 °F 90% 30.05 in 5.0 mi Calm Calm - N/A   Clear
8:36 AM 43.0 °F 41.3 °F 39.9 °F 89% 30.05 in 4.0 mi South 3.5 mph - N/A   Clear
8:55 AM 43.9 °F 40.5 °F 40.6 °F 88% 30.05 in 7.0 mi South 5.8 mph - N/A   Clear
9:15 AM 46.9 °F - 43.3 °F 87% 30.06 in 10.0 mi South 5.8 mph - N/A   Clear
9:39 AM 49.1 °F - 44.1 °F 83% 30.05 in 10.0 mi South 4.6 mph - N/A   Clear
9:57 AM 50.7 °F - 45.0 °F 81% 30.05 in 10.0 mi South 4.6 mph - N/A   Clear
10:15 AM 52.2 °F - 45.9 °F 79% 30.05 in 10.0 mi South 5.8 mph - N/A   Clear
10:16 AM 52.2 °F - 45.9 °F 79% 30.05 in 10.0 mi South 6.9 mph - N/A   Clear
10:35 AM 54.0 °F - 46.8 °F 77% 30.05 in 10.0 mi South 5.8 mph - N/A   Clear
10:36 AM 54.1 °F - 47.1 °F 77% 30.05 in 10.0 mi South 5.8 mph - N/A   Clear
10:55 AM 55.9 °F - 47.7 °F 74% 30.05 in 10.0 mi South 6.9 mph - N/A   Clear
11:00 AM 56.3 °F - 48.0 °F 74% 30.05 in 10.0 mi South 8.1 mph - N/A   Clear
11:17 AM 58.3 °F - 48.4 °F 70% 30.05 in 10.0 mi South 6.9 mph - N/A   Clear
11:36 AM 60.1 °F - 48.4 °F 65% 30.05 in 10.0 mi South 8.1 mph - N/A   Clear
11:55 AM 61.5 °F - 48.7 °F 63% 30.04 in 10.0 mi South 9.2 mph - N/A   Clear
11:56 AM 61.7 °F - 48.7 °F 62% 30.04 in 10.0 mi South 8.1 mph - N/A   Clear
12:15 PM 62.6 °F - 48.9 °F 61% 30.04 in 10.0 mi SW 9.2 mph - N/A   Clear
12:50 PM 64.4 °F - 48.2 °F 56% 30.04 in 10.0 mi South 11.5 mph - N/A   Clear
1:10 PM 64.4 °F - 48.2 °F 56% 30.03 in 10.0 mi SSW 11.5 mph - N/A   Scattered Clouds
1:34 PM 66.2 °F - 46.4 °F 49% 30.02 in 10.0 mi SSW 15.0 mph 20.7 mph N/A   Clear
1:44 PM 65.3 °F - 47.1 °F 52% 30.02 in 10.0 mi SW 11.5 mph 20.7 mph N/A   Clear
1:55 PM 65.8 °F - 46.4 °F 49% 30.01 in 10.0 mi SW 15.0 mph - N/A   Scattered Clouds
2:15 PM 65.1 °F - 46.8 °F 51% 30.01 in 10.0 mi SSW 13.8 mph 18.4 mph N/A   Scattered Clouds
2:20 PM 66.2 °F - 46.8 °F 50% 30.01 in 10.0 mi SSW 15.0 mph 18.4 mph N/A   Scattered Clouds
2:38 PM 65.1 °F - 45.7 °F 49% 30.00 in 10.0 mi SW 11.5 mph 18.4 mph N/A   Mostly Cloudy
2:56 PM 64.9 °F - 45.1 °F 49% 30.00 in 10.0 mi SSW 13.8 mph 21.9 mph N/A   Mostly Cloudy
3:15 PM 64.0 °F - 45.9 °F 52% 30.01 in 10.0 mi SSW 11.5 mph 20.7 mph N/A   Mostly Cloudy
3:35 PM 64.0 °F - 45.7 °F 51% 30.00 in 10.0 mi SW 9.2 mph - N/A   Overcast
3:36 PM 64.2 °F - 46.0 °F 52% 30.00 in 10.0 mi SSW 10.4 mph - N/A   Overcast
3:59 PM 64.8 °F - 46.2 °F 51% 30.00 in 10.0 mi SW 12.7 mph - N/A   Overcast
4:18 PM 63.7 °F - 46.9 °F 54% 30.01 in 10.0 mi SSW 10.4 mph - N/A   Overcast
4:36 PM 64.4 °F - 46.9 °F 53% 30.01 in 10.0 mi SW 10.4 mph - N/A   Overcast
4:55 PM 63.9 °F - 47.5 °F 55% 30.01 in 10.0 mi SSW 9.2 mph - N/A   Overcast
4:56 PM 63.9 °F - 47.5 °F 55% 30.01 in 10.0 mi SSW 10.4 mph - N/A   Overcast
5:15 PM 63.9 °F - 48.0 °F 56% 30.01 in 10.0 mi SW 11.5 mph - N/A   Overcast
5:16 PM 63.7 °F - 47.7 °F 56% 30.01 in 10.0 mi SW 11.5 mph - N/A   Overcast
5:39 PM 62.6 °F - 48.7 °F 60% 30.01 in 10.0 mi SW 8.1 mph - N/A   Overcast
5:57 PM 61.7 °F - 48.9 °F 63% 30.01 in 10.0 mi SW 6.9 mph - N/A   Overcast
6:15 PM 61.0 °F - 49.3 °F 65% 30.02 in 10.0 mi WSW 3.5 mph - N/A   Overcast
6:35 PM 60.3 °F - 49.5 °F 68% 30.02 in 10.0 mi West 3.5 mph - N/A   Overcast
6:36 PM 60.3 °F - 49.5 °F 68% 30.02 in 10.0 mi West 4.6 mph - N/A   Overcast
6:55 PM 60.3 °F - 49.5 °F 68% 30.02 in 10.0 mi Calm Calm - N/A   Overcast
7:00 PM 60.1 °F - 49.6 °F 68% 30.02 in 10.0 mi NW 3.5 mph - N/A   Overcast
7:18 PM 59.9 °F - 49.6 °F 69% 30.03 in 10.0 mi West 3.5 mph - N/A   Overcast
7:36 PM 58.8 °F - 49.5 °F 71% 30.03 in 10.0 mi Calm Calm - N/A   Overcast
7:55 PM 58.6 °F - 49.6 °F 72% 30.02 in 10.0 mi Calm Calm - N/A   Overcast
7:56 PM 58.6 °F - 49.6 °F 72% 30.02 in 10.0 mi Calm Calm - N/A   Overcast
8:15 PM 58.1 °F - 50.0 °F 74% 30.02 in 10.0 mi Calm Calm - N/A   Overcast
8:16 PM 58.1 °F - 50.0 °F 74% 30.02 in 10.0 mi Calm Calm - N/A   Overcast
8:39 PM 57.6 °F - 50.0 °F 76% 30.03 in 10.0 mi Calm Calm - N/A   Overcast
8:57 PM 56.3 °F - 49.8 °F 79% 30.02 in 10.0 mi Calm Calm - N/A   Overcast
9:15 PM 55.9 °F - 49.5 °F 79% 30.01 in 10.0 mi Calm Calm - N/A   Overcast
9:16 PM 56.1 °F - 49.5 °F 78% 30.01 in 10.0 mi Calm Calm - N/A   Overcast
9:35 PM 55.6 °F - 50.0 °F 81% 30.02 in 10.0 mi Calm Calm - N/A   Overcast
9:55 PM 55.4 °F - 50.2 °F 83% 30.02 in 10.0 mi WNW 3.5 mph - N/A   Overcast
10:18 PM 55.4 °F - 49.1 °F 79% 30.03 in 10.0 mi WNW 3.5 mph - N/A   Overcast
10:36 PM 54.9 °F - 49.1 °F 81% 30.03 in 10.0 mi NW 3.5 mph - N/A   Overcast
10:55 PM 54.7 °F - 48.6 °F 80% 30.02 in 10.0 mi Calm Calm - N/A   Overcast
11:15 PM 54.0 °F - 48.4 °F 81% 30.02 in 10.0 mi Calm Calm - N/A   Overcast
11:39 PM 53.8 °F - 49.1 °F 84% 30.02 in 7.0 mi Calm Calm - N/A   Overcast
11:57 PM 54.5 °F - 49.1 °F 82% 30.02 in 7.0 mi West 3.5 mph - N/A   Overcast